Burns, OR

6:31 PM PDT on September 25, 2017 (GMT -0700)
Burns Municipal

Weather History for KBNO - July, 2013

Change the Weather History Date:

Tuesday, July 2, 2013

  Actual Average Record
Temperature  
Mean Temperature 82 °F 64 °F  
Max Temperature 102 °F 82 °F 102 °F (2013)
Min Temperature 61 °F 45 °F 33 °F (1999)
Degree Days  
Heating Degree Days 0 3  
Month to date heating degree days 0 7  
Since 1 June heating degree days 188 225  
Since 1 July heating degree days 0 7  
Cooling Degree Days 17 2  
Month to date cooling degree days 33 4  
Year to date cooling degree days 88 27  
Since 1 June cooling degree days 87 24  
Growing Degree Days 30 (Base 50)    
Moisture  
Dew Point 49 °F    
Average Humidity 45    
Maximum Humidity 78    
Minimum Humidity 11    
Precipitation  
Precipitation 0.00 in 0.02 in 0.48 in (2006)
Month to date precipitation T 0.03  
Year to date precipitation 3.41 6.25  
Sea Level Pressure  
Sea Level Pressure 29.98 in    
Wind  
Wind Speed 8 mph (NW)    
Max Wind Speed 21 mph    
Max Gust Speed 25 mph    
Visibility 10 miles    
Events      
T = Trace of Precipitation, MM = Missing Value Source: NWS Daily Summary

Daily Weather History Graph

Daily Weather History Graph

Search for Another Location

Airport or City:

Trip Planner

Search our weather history database for the weather conditions in past years. The results will help you decide how hot, cold, wet, or windy it might be!

Date:

Astronomy

Jul. 02, 2013 Rise Set
Actual Time 5:19 AM PDT 8:40 PM PDT
Civil Twilight 4:43 AM PDT 9:16 PM PDT
Nautical Twilight 3:57 AM PDT 10:02 PM PDT
Astronomical Twilight 2:59 AM PDT 11:00 PM PDT
Moon 1:29 AM PDT (7/2) 3:55 PM PDT (7/2)
Length of Visible Light 16h 32m
Length of Day
15h 21m
Waning Crescent, 25% of the Moon is Illuminated
Jul 2
Waning Crescent
Jul 8
New
Jul 15
First Quarter
Jul 22
Full
Jul 29
Last Quarter

Hourly Weather History & Observations

Time (PDT) Temp. Heat Index Dew Point Humidity Pressure Visibility Wind Dir Wind Speed Gust Speed Precip Events Conditions
12:53 AM 70.0 °F - 57.0 °F 63% 30.00 in 10.0 mi NE 4.6 mph - N/A   Clear
1:53 AM 68.0 °F - 55.0 °F 63% 30.01 in 10.0 mi NE 8.1 mph - N/A   Clear
2:53 AM 68.0 °F - 53.1 °F 59% 30.00 in 10.0 mi North 4.6 mph - N/A   Clear
3:53 AM 64.9 °F - 52.0 °F 63% 30.00 in 10.0 mi NNW 3.5 mph - N/A   Clear
4:53 AM 66.0 °F - 53.1 °F 63% 29.99 in 10.0 mi North 6.9 mph - N/A   Clear
5:53 AM 62.1 °F - 55.0 °F 78% 30.01 in 10.0 mi WSW 5.8 mph - N/A   Clear
7:53 AM 81.0 °F 80.7 °F 55.0 °F 41% 29.99 in 10.0 mi West 10.4 mph - N/A   Clear
8:53 AM 86.0 °F 85.0 °F 57.9 °F 38% 29.99 in 10.0 mi WSW 6.9 mph - N/A   Clear
9:53 AM 91.9 °F 90.0 °F 55.0 °F 29% 29.99 in 10.0 mi NNW 5.8 mph - N/A   Clear
10:53 AM 93.9 °F 91.7 °F 54.0 °F 26% 29.99 in 10.0 mi North 6.9 mph - N/A   Clear
11:53 AM 97.0 °F 94.6 °F 54.0 °F 23% 29.99 in 10.0 mi Variable 3.5 mph - N/A   Unknown
12:53 PM 99.0 °F - 39.9 °F 13% 29.99 in 10.0 mi West 11.5 mph 18.4 mph N/A   Clear
1:53 PM 99.0 °F - 48.0 °F 18% 29.98 in 10.0 mi Variable 4.6 mph - N/A   Clear
2:53 PM 102.0 °F - 46.0 °F 15% 29.96 in 10.0 mi NNW 16.1 mph 20.7 mph N/A   Partly Cloudy
3:53 PM 100.9 °F - 44.1 °F 14% 29.95 in 10.0 mi NNW 15.0 mph 21.9 mph N/A   Clear
4:53 PM 100.9 °F - 37.9 °F 11% 29.94 in 10.0 mi NNW 6.9 mph 18.4 mph N/A   Clear
5:53 PM 97.0 °F - 45.0 °F 17% 29.94 in 10.0 mi NNW 13.8 mph - N/A   Clear
6:53 PM 91.9 °F - 46.9 °F 21% 29.94 in 10.0 mi NNW 12.7 mph - N/A   Clear
7:53 PM 89.1 °F - 46.0 °F 22% 29.94 in 10.0 mi NNW 11.5 mph - N/A   Clear
8:53 PM 82.0 °F - 45.0 °F 27% 29.95 in 10.0 mi WNW 8.1 mph - N/A   Clear
9:53 PM 80.1 °F - 46.0 °F 30% 29.96 in 10.0 mi WNW 9.2 mph - N/A   Clear
10:53 PM 77.0 °F - 46.0 °F 33% 29.97 in 10.0 mi West 3.5 mph - N/A   Clear
11:53 PM 75.9 °F - 48.0 °F 37% 29.98 in 10.0 mi West 6.9 mph - N/A   Clear